Regional Weather Roundup
Issued by NWS

Home | Current Version | Previous Version | Text Only | Print | Product List | Glossary Off
Versions: 1 2 3 4 5 6 7 8 9 10 11 12 13 14 15 16 17 18 19 20 21 22 23 24 25 26 27 28 29 30 31 32 33 34 35 36 37 38 39 40 41 42 43 44 45 46 47 48 49 50

000
ASUS43 KMKX 222300
RWRWI

WISCONSIN REGIONAL WEATHER ROUNDUP
NATIONAL WEATHER SERVICE MILWAUKEE/SULLIVAN WI
600 PM CDT TUE JUL 22 2014

NOTE: "FAIR" INDICATES FEW OR NO CLOUDS BELOW 12,000 FEET WITH NO
SIGNIFICANT WEATHER AND/OR OBSTRUCTIONS TO VISIBILITY.

WIZ001-002-006>008-014>016-023>028-230000-
NORTHWEST WISCONSIN

CITY           SKY/WX    TMP DP  RH WIND       PRES   REMARKS
SUPERIOR ARPT  PTSUNNY   79  59  50 NE9       30.04R HX  80
ASHLAND        MOSUNNY   74  61  63 NE8       30.07R
HAYWARD        MOSUNNY   78  59  51 N10       30.06R
SIREN          MOSUNNY   80  58  47 N9        30.06R HX  80
RICE LAKE      MOSUNNY   79  58  49 NW8       30.06R HX  80
LADYSMITH      MOSUNNY   79  62  56 N15       30.05R HX  80
EAU CLAIRE     NOT AVBL
MENOMONIE      PTCLDY    82  60  48 W10       30.04R HX  82
NEW RICHMOND   MOSUNNY   78  62  57 N7        30.07R HX  80
OSCEOLA        PTSUNNY   79  60  51 NW9       30.09R HX  80
$$

WIZ003>005-009-010-017-018-230000-
NORTH CENTRAL WISCONSIN

CITY           SKY/WX    TMP DP  RH WIND       PRES   REMARKS
WOODRUFF       RAIN      67  62  84 N18       30.07R
RHINELANDER    CLOUDY    69  62  78 VRB7G20   30.06R
EAGLE RIVER    LGT RAIN  65  63  93 N12G21    30.05R
LAND O LAKES   CLOUDY    65  62  90 N10G18    30.06R
PHILLIPS       CLOUDY    74  62  65 N16       30.04R
TOMAHAWK       CLOUDY    73  62  70 NW12      30.04R
MEDFORD        PTSUNNY   76  64  67 NW12      30.03R
MERRILL        PTSUNNY   76  65  67 N9        30.01R
$$

WIZ029-030-035-036-043>047-230000-
CENTRAL WISCONSIN

CITY           SKY/WX    TMP DP  RH WIND       PRES   REMARKS
WAUSAU         MOSUNNY   78  62  57 NW12G22   29.99R HX  80
MOSINEE        PTSUNNY   79  64  61 NW15      30.01R HX  81
MARSHFIELD     PTSUNNY   78  63  59 NW13      30.02R HX  80
STEVENS POINT  MOSUNNY   81  63  54 NW13G21   29.98R HX  82
WAUPACA        SUNNY     90  63  41 W14G21    29.94R HX  90
WAUTOMA        NOT AVBL
WISC RAPIDS    PTSUNNY   82  65  56 NW14      30.00R HX  84
CAMP DOUGLAS   NOT AVBL
$$

WIZ011>013-019>022-031-037>040-048>050-230000-
NORTHEAST WISCONSIN

CITY           SKY/WX    TMP DP  RH WIND       PRES   REMARKS
ANTIGO         PTSUNNY   74  64  68 NW20      30.01R
STURGEON BAY   MOSUNNY   82  64  54 NW12G20   29.90R HX  84
GREEN BAY      SUNNY     88  67  49 NW13      29.90R HX  91
MANITOWOC      NOT AVBL
APPLETON       PTSUNNY   88  63  42 NW15G21   29.92R HX  88
CLINTONVILLE   PTSUNNY   86  63  45 N14G20    29.92R HX  87
OSHKOSH        SUNNY     88  66  48 NW17G24   29.91R HX  90
$$

WIZ032>034-041-042-053>061-230000-
SOUTHWEST WISCONSIN

CITY           SKY/WX    TMP DP  RH WIND       PRES   REMARKS
LA CROSSE      SUNNY     87  66  49 NW16      29.99R HX  89
SPARTA         SUNNY     86  64  47 NW10G20   29.99R HX  87
VIROQUA        FAIR      83  67  59 NW13G20   30.01R HX  85
BOSCOBEL       MOSUNNY   91  69  48 N13G18    29.96R HX  96
PRAIRIE DU CHI SUNNY     88  66  48 NW10      29.96R HX  90
PLATTEVILLE    FAIR      91  72  54 W8        29.96S HX  98
$$

WIZ056-057-062-063-064-067-068-230000-
SOUTH CENTRAL WISCONSIN

CITY           SKY/WX    TMP DP  RH WIND       PRES   REMARKS
BARABOO/DELLS  MOSUNNY   88  68  51 N12G18    29.95R HX  91
LONE ROCK      NOT AVBL
WATERTOWN      SUNNY     90  74  59 W12G17    29.90S HX  98
MADISON        MOSUNNY   92  75  57 W8        29.92R HX 103
MIDDLETON      FAIR      91  72  53 NW6       29.93S HX  98
MONROE         MOSUNNY   88  73  62 W6        29.95R HX  96
JANESVILLE     NOT AVBL
$$

WIZ051-052-058>065-066-070>072-230000-
SOUTHEAST WISCONSIN

CITY           SKY/WX    TMP DP  RH WIND       PRES   REMARKS
MILWAUKEE      PTSUNNY   87  74  64 SW14      29.90S HX  95
WAUKESHA       CLOUDY    82  75  78 SW10      29.93S HX  89
MILWAUKEE/TIMM PTSUNNY   88  73  62 SW6       29.91S HX  96
RACINE         MOSUNNY   87  75  67 W10       29.93S HX  96
BURLINGTON     PTSUNNY   84  75  73 SW9       29.93R HX  92
KENOSHA        MOSUNNY   86  77  74 W7        29.93S HX  97
FOND DU LAC    MOSUNNY   89  69  51 NW16G25   29.91R HX  93
SHEBOYGAN      RAIN      84  75  74 W15G22    29.89R HX  92
WEST BEND      MOSUNNY   88  70  55 W14       29.90S HX  92
JUNEAU         SUNNY     89  68  49 W8        29.92S HX  92
$$

LSZ147-162-230000-
LAKE SUPERIOR

STATION/POSITION TIME  TEMP    WIND        PRES    WAVE
                       AIR SEA DIR/SP/G            HT/PER
                 (UTC) (F)     (DEG/KT/KT) (MB)    (FT/S)
W MID LAKE BUOY  2150   54 40  280/  8/ 10 1016.4R   2/ 4
PORT WING        2200   73      50/  3/  4 1017.3R
SAXON HARBOR     2240           60/  2/  4 1017.9R
$$

LMZ867-665-643>646-230000-
LAKE MICHIGAN

STATION/POSITION TIME  TEMP    WIND        PRES    WAVE
                       AIR SEA DIR/SP/G            HT/PER
                 (UTC) (F)     (DEG/KT/KT) (MB)    (FT/S)
N MID LAKE BUOY  2150   62 59  230/ 10/ 10 1010.8R   5/ 6
NORTHPORT PIER   2200   77     310/  8/ 18 1011.2R
KEWAUNEE LAKESHO 2200   56     170/  4/  6 1012.1R
SHEBOYGAN LAKESH 2200   79     190/  5/  8 1011.4F
PORT WASHINGTON  2200          240/  9/ 12 1012.2F
ATWATER BUOY     2200   76     240/ 10     1013.5F
MILWAUKEE LAKESH 2200   86     260/ 12/ 16   N/A
S MID LAKE BUOY  2150   72 67  190/ 12/ 14 1013.4R   2/ 4
KENOSHA   LAKESH 2200   87     230/ 12/ 20   N/A
$$

TC  - TEMPERATURE IN CELSIUS
VSB - VISIBILITY IN STATUTE MILES
WCI - WIND CHILL INDEX
HX  - HEAT INDEX



USA.gov is the U.S. government's official web portal to all federal, state and local government web resources and services.